STARLINK-32171, 60332

Orbit data source: Space-Track

STARLINK-32171, 60332 is a payload satellite owned by SpaceX/Seattle (US) in LEO that was launched on Fri, 02 Aug 2024 UTC via an FALCON 9 launch vehicle from the Air Force Eastern Test Range (AFETR). Payload-class satellites include a variety of spacecraft equipped with specific instruments for various scientific and technological missions. These include communications satellites like Starlink; space stations such as the ISS; scientific satellites like the Hubble; Earth observation satellites from companies like Planet Labs, Umbra, and HawkEye 360; GPS; miniature CubeSats for education and research; and military/defense satellites.

Loading next visibility...
Identifier
60332, 2024-136D
Orbit
LEO
Country
Flag of USUS
Related business
Manufacturer
SpaceX/Seattle
Mission
Operational Commercial Communications
Bus & Motor
STARLINK V2M, Unknown motor
Mass
730 kg wet, ~700 kg dry
Launch date (UTC)
2024-08-02 (2 years ago)
Launch vehicle
FALCON 9
Launch site
Air Force Eastern Test Range (AFETR)
Object type
Payload
Rocket body
Debris
Shape & HBR
Box + 2 Pan, 17.7 m
Radar Cross Section
33.884 m², Large (>1 m²)

Expand to show TLE details & history
Last TLE update: 5 days ago

TLE from 5 days ago
0 STARLINK-32171
1 60332U 24136D   26154.74711616  .00000433  00000-0  26738-4 0  9991
2 60332  53.1608  35.7165 0000720  66.0111 294.0966 15.30195846102843
Epoch: 2026-06-03T17:55Z
TLE epoch observation values (Epoch: 2026-06-03T17:55:50.836Z)
Latitude
0.00006°
Longitude
-125.44657°
Altitude
475.926 km
Speed
7.629 km/s
True Right ascension
02h 22m 51s
True Declination
0° 00' 00"
Sunlit
Object was in daylight at epoch
Visualization orbit readout
Latitude
Unknown
Longitude
Unknown
Altitude
Unknown
Speed
Unknown
Apparent Right ascension
Unknown
Apparent Declination
Unknown
Sunlit
N/A
Visualization observer readout
Local Sidereal Time
02:54:21
Azimuth
Unknown
Elevation
Unknown
Doppler factor
Unknown
Orbital elements
Apogee altitude
475.977 km
Perigee altitude
474.99 km
Semi-major axis
6,853.621 km
Eccentricity
0.00007
Inclination
53.1608°
RAAN
35.7165°
Arg. of periapsis
66.0111°
True anomaly
294.08907°
Mean anomaly
294.0966°
Eccentric anomaly
294.09283°
Mean motion
3.82528 °/min
Orbital period
94.11 mins
BSTAR
0.000026738
Loading maneuver chart data...
Computing Atmospheric mass density...
Loading historical data...
Loading historical data...
Loading historical data...
Loading historical data...
Loading historical data...
Loading historical data...
Loading historical data...

Documentation

Showing up to 5 results
|